Time+07,TemperatureF,Dew PointF,Humidity,Sea Level PressureIn,VisibilityMPH,Wind Direction,Wind SpeedMPH,Gust SpeedMPH,PrecipitationIn,Events,Conditions,WindDirDegrees,DateUTC
12:00 AM,82.4,69.8,66,29.89,5.6,East,5.8,-,N/A,,Scattered Clouds,80,2012-12-12 17:00:00
12:30 AM,82.4,69.8,66,29.89,5.6,East,6.9,-,N/A,,Scattered Clouds,100,2012-12-12 17:30:00
1:00 AM,79,74,79,29.88,6,Calm,Calm,,,,Clear,,2012-12-12 18:00:00
1:00 AM,80.6,69.8,70,29.89,5.6,East,4.6,-,N/A,,Scattered Clouds,80,2012-12-12 18:00:00
1:30 AM,82.4,69.8,66,29.89,5.6,East,5.8,-,N/A,,Scattered Clouds,100,2012-12-12 18:30:00
2:00 AM,80.6,69.8,70,29.86,5.6,East,5.8,-,N/A,,Scattered Clouds,90,2012-12-12 19:00:00
2:30 AM,80.6,69.8,70,29.86,5.6,East,6.9,-,N/A,,Scattered Clouds,90,2012-12-12 19:30:00
3:00 AM,78.8,69.8,74,29.86,5.6,North,5.8,-,N/A,,Scattered Clouds,360,2012-12-12 20:00:00
3:30 AM,77.0,69.8,78,29.86,5.6,North,4.6,-,N/A,,Unknown,10,2012-12-12 20:30:00
4:00 AM,78.8,69.8,74,29.86,5.0,ENE,4.6,-,N/A,,Unknown,70,2012-12-12 21:00:00
4:30 AM,77.0,68.0,74,29.86,5.0,NE,4.6,-,N/A,,Unknown,40,2012-12-12 21:30:00
5:00 AM,77.0,68.0,74,29.86,5.0,NE,4.6,-,N/A,,Unknown,40,2012-12-12 22:00:00
5:30 AM,77.0,68.0,74,29.86,5.0,NE,5.8,-,N/A,,Unknown,50,2012-12-12 22:30:00
6:00 AM,77.0,68.0,74,29.86,5.0,NNE,3.5,-,N/A,,Unknown,30,2012-12-12 23:00:00
6:30 AM,77.0,68.0,74,29.89,5.6,ENE,5.8,-,N/A,,Unknown,70,2012-12-12 23:30:00
7:00 AM,75,72,89,29.88,4,Calm,Calm,,,,Mist,,2012-12-13 00:00:00
7:00 AM,77.0,68.0,74,29.89,5.6,ENE,8.1,-,N/A,,Unknown,60,2012-12-13 00:00:00
7:30 AM,77.0,69.8,78,29.92,5.0,North,5.8,-,N/A,,Unknown,350,2012-12-13 00:30:00
8:00 AM,80.6,68.0,65,29.92,-9999.0,ENE,8.1,-,N/A,,Clear,60,2012-12-13 01:00:00
8:30 AM,80.6,68.0,65,29.95,-9999.0,ENE,8.1,-,N/A,,Clear,60,2012-12-13 01:30:00
9:00 AM,82.4,68.0,62,29.95,-9999.0,NE,9.2,-,N/A,,Clear,50,2012-12-13 02:00:00
9:30 AM,84.2,66.2,55,29.95,-9999.0,ENE,11.5,-,N/A,,Clear,70,2012-12-13 02:30:00
10:00 AM,84.2,66.2,55,29.95,6.2,East,10.4,-,N/A,,Scattered Clouds,80,2012-12-13 03:00:00
10:30 AM,86.0,66.2,51,29.95,6.2,East,11.5,-,N/A,,Scattered Clouds,80,2012-12-13 03:30:00
11:00 AM,86.0,66.2,51,29.95,6.2,East,12.7,-,N/A,,Scattered Clouds,90,2012-12-13 04:00:00
11:30 AM,87.8,66.2,49,29.92,6.2,East,11.5,-,N/A,,Scattered Clouds,80,2012-12-13 04:30:00
12:00 PM,87.8,66.2,49,29.92,6.2,East,11.5,-,N/A,,Scattered Clouds,90,2012-12-13 05:00:00
12:30 PM,87.8,66.2,49,29.89,6.2,East,10.4,-,N/A,,Scattered Clouds,80,2012-12-13 05:30:00
1:00 PM,91,68,38,29.87,5,NE,5.8,,,,Haze,40,2012-12-13 06:00:00
1:00 PM,87.8,68.0,52,29.89,6.2,East,9.2,-,N/A,,Scattered Clouds,90,2012-12-13 06:00:00
1:30 PM,89.6,66.2,46,29.89,6.2,East,8.1,-,N/A,,Scattered Clouds,80,2012-12-13 06:30:00
2:00 PM,89.6,66.2,46,29.86,6.2,East,9.2,20.7,N/A,,Scattered Clouds,80,2012-12-13 07:00:00
2:30 PM,89.6,66.2,46,29.86,6.2,East,6.9,-,N/A,,Scattered Clouds,90,2012-12-13 07:30:00
3:00 PM,89.6,66.2,46,29.83,6.2,NE,9.2,21.9,N/A,,Scattered Clouds,50,2012-12-13 08:00:00
3:30 PM,89.6,66.2,46,29.83,6.2,East,6.9,18.4,N/A,,Scattered Clouds,90,2012-12-13 08:30:00
4:00 PM,87.8,66.2,49,29.83,6.2,East,6.9,-,N/A,,Scattered Clouds,90,2012-12-13 09:00:00
4:30 PM,87.8,66.2,49,29.83,6.2,East,5.8,-,N/A,,Scattered Clouds,90,2012-12-13 09:30:00
5:00 PM,87.8,66.2,49,29.86,6.2,East,4.6,-,N/A,,Scattered Clouds,90,2012-12-13 10:00:00
5:30 PM,87.8,66.2,49,29.86,6.2,Variable,2.3,-,N/A,,Scattered Clouds,0,2012-12-13 10:30:00
6:00 PM,86.0,66.2,51,29.86,6.2,NE,3.5,-,N/A,,Scattered Clouds,50,2012-12-13 11:00:00
6:30 PM,84.2,66.2,55,29.86,6.2,NNE,3.5,-,N/A,,Scattered Clouds,30,2012-12-13 11:30:00
7:00 PM,87,71,49,29.85,5,Calm,Calm,,,,Haze,,2012-12-13 12:00:00
7:00 PM,82.4,68.0,62,29.86,6.2,North,4.6,-,N/A,,Scattered Clouds,10,2012-12-13 12:00:00
7:30 PM,82.4,68.0,62,29.89,6.2,NNW,5.8,-,N/A,,Scattered Clouds,340,2012-12-13 12:30:00
8:00 PM,82.4,68.0,62,29.89,6.2,North,3.5,-,N/A,,Scattered Clouds,360,2012-12-13 13:00:00
8:30 PM,82.4,68.0,62,29.92,6.2,North,3.5,-,N/A,,Scattered Clouds,360,2012-12-13 13:30:00
9:00 PM,80.6,69.8,70,29.92,6.2,North,3.5,-,N/A,,Scattered Clouds,350,2012-12-13 14:00:00
9:30 PM,82.4,68.0,62,29.92,6.2,North,3.5,-,N/A,,Scattered Clouds,360,2012-12-13 14:30:00
10:00 PM,80.6,68.0,65,29.92,6.2,North,4.6,-,N/A,,Scattered Clouds,350,2012-12-13 15:00:00
10:30 PM,80.6,68.0,65,29.95,6.2,North,3.5,-,N/A,,Scattered Clouds,350,2012-12-13 15:30:00
11:00 PM,80.6,68.0,65,29.95,6.2,NNE,3.5,-,N/A,,Scattered Clouds,20,2012-12-13 16:00:00
11:30 PM,80.6,68.0,65,29.95,6.2,Variable,2.3,-,N/A,,Scattered Clouds,0,2012-12-13 16:30:00